TimeCST,TemperatureF,Dew PointF,Humidity,Sea Level PressureIn,VisibilityMPH,Wind Direction,Wind SpeedMPH,Gust SpeedMPH,PrecipitationIn,Events,Conditions,WindDirDegrees,DateUTC
12:53 AM,55.0,54.0,96,30.01,9.0,Calm,Calm,-,N/A,,Clear,0,2012-11-06 06:53:00
1:53 AM,54.0,53.1,97,30.02,7.0,Calm,Calm,-,N/A,,Clear,0,2012-11-06 07:53:00
2:53 AM,54.0,52.0,93,30.04,10.0,WNW,4.6,-,N/A,,Clear,290,2012-11-06 08:53:00
3:53 AM,55.0,51.1,86,30.04,10.0,NW,5.8,-,N/A,,Clear,310,2012-11-06 09:53:00
4:53 AM,55.0,50.0,83,30.06,10.0,NNW,8.1,-,N/A,,Clear,340,2012-11-06 10:53:00
5:53 AM,53.1,48.0,83,30.07,10.0,NNW,5.8,-,N/A,,Clear,340,2012-11-06 11:53:00
6:53 AM,53.1,48.0,83,30.09,10.0,NNW,8.1,-,N/A,,Clear,340,2012-11-06 12:53:00
7:53 AM,55.9,48.0,75,30.12,10.0,North,10.4,-,N/A,,Clear,350,2012-11-06 13:53:00
8:53 AM,57.9,48.0,70,30.13,10.0,North,12.7,-,N/A,,Clear,350,2012-11-06 14:53:00
9:53 AM,61.0,48.0,62,30.13,10.0,NNW,12.7,-,N/A,,Clear,340,2012-11-06 15:53:00
10:53 AM,63.0,48.0,58,30.12,10.0,NNW,10.4,-,N/A,,Clear,340,2012-11-06 16:53:00
11:53 AM,66.9,46.0,47,30.10,10.0,NNW,10.4,-,N/A,,Clear,340,2012-11-06 17:53:00
12:53 PM,66.9,46.9,49,30.08,10.0,NNW,8.1,-,N/A,,Clear,330,2012-11-06 18:53:00
1:53 PM,69.1,45.0,42,30.06,10.0,NW,10.4,-,N/A,,Clear,320,2012-11-06 19:53:00
2:53 PM,70.0,44.1,39,30.06,10.0,NW,11.5,-,N/A,,Clear,320,2012-11-06 20:53:00
3:53 PM,70.0,44.1,39,30.06,10.0,North,8.1,-,N/A,,Clear,350,2012-11-06 21:53:00
4:53 PM,66.9,44.1,44,30.06,10.0,NNW,5.8,-,N/A,,Clear,330,2012-11-06 22:53:00
5:53 PM,60.1,46.9,62,30.08,10.0,North,3.5,-,N/A,,Clear,10,2012-11-06 23:53:00
6:53 PM,54.0,50.0,86,30.10,10.0,Calm,Calm,-,N/A,,Clear,0,2012-11-07 00:53:00
7:53 PM,53.1,48.9,86,30.12,10.0,WNW,3.5,-,N/A,,Clear,300,2012-11-07 01:53:00
8:53 PM,52.0,48.0,86,30.12,10.0,Calm,Calm,-,N/A,,Clear,0,2012-11-07 02:53:00
9:53 PM,51.1,48.0,89,30.12,10.0,Calm,Calm,-,N/A,,Clear,0,2012-11-07 03:53:00
10:53 PM,51.1,48.0,89,30.12,10.0,Calm,Calm,-,N/A,,Clear,0,2012-11-07 04:53:00
11:53 PM,50.0,48.0,93,30.12,10.0,Calm,Calm,-,N/A,,Clear,0,2012-11-07 05:53:00